Regional Weather Roundup
Issued by NWS

Home | Current Version | Previous Version | Graphics & Text | Print | Product List | Glossary On
Versions: 1 2 3 4 5 6 7 8 9 10 11 12 13 14 15 16 17 18 19 20 21 22 23 24 25 26 27 28 29 30 31 32 33 34 35 36 37 38 39 40 41 42 43 44 45 46 47 48 49 50
379
ASUS43 KTOP 250959
RWRKS

WEATHER ROUNDUP FOR KANSAS
NATIONAL WEATHER SERVICE GOODLAND KS
400 AM CST SAT FEB 25 2017

NOTE:  "FAIR" INDICATES FEW OR NO CLOUDS BELOW 12,000 FEET WITH NO
SIGNIFICANT WEATHER AND/OR OBSTRUCTIONS TO VISIBILITY.

KSZ001>006-013>018-027>032-041>047-251100-
NORTHWEST KANSAS

CITY           SKY/WX    TMP DP  RH WIND       PRES   REMARKS
GOODLAND       CLEAR     14  12  92 SW6       30.06F
HAYS           CLEAR     12   9  87 NW7       30.17F
HILL CITY      CLEAR     11   8  88 NW7       30.15F
RUSSELL        CLEAR     12   9  87 W8        30.16F
$$

KSZ061>065-074>080-084>089-251100-
SOUTHWEST KANSAS

CITY           SKY/WX    TMP DP  RH WIND       PRES   REMARKS
DODGE CITY     CLEAR     10   5  80 NW5       30.16S
ELKHART          N/A     16   3  56 SW3         N/A
GARDEN CITY    CLEAR     10   5  80 W5        30.14F
GREAT BEND     CLEAR     13   9  84 NW7       30.18F
LIBERAL        CLEAR     12   0  57 CALM      30.15S
$$

KSZ066>073-081>083-090>101-251100-
SOUTHEAST KANSAS

CITY           SKY/WX    TMP DP  RH WIND       PRES   REMARKS
CHANUTE        CLEAR     22  16  78 NW8       30.14F
COFFEYVILLE    CLEAR     24  17  74 W6        30.18S
HUTCHINSON     CLEAR     17  12  80 NW10      30.18S WCI   5
MEDICINE LODGE   N/A     15  11  83 W5        30.20F
NEWTON         CLEAR     18  14  84 NW8       30.16F
PARSONS        CLEAR     21  16  81 W3        30.17F
WICHITA INTL   CLEAR     19  15  84 W7        30.19R
WICHITA JABRA  CLEAR     20  15  81 W10       30.17S WCI   9
WINFIELD       CLEAR     21  17  84 NW9       30.19F
$$

KSZ007>012-019>026-033>040-048>060-102>105-251100-
NORTHEAST KANSAS

CITY           SKY/WX    TMP DP  RH WIND       PRES   REMARKS
CONCORDIA      CLEAR     17  12  80 W10       30.15S WCI   5
EMPORIA        CLEAR     20  16  84 NW8       30.13S
LAWRENCE       CLEAR     20  17  88 W7        30.12R
MANHATTAN      CLEAR     19  14  81 CALM      30.14F
OLATHE IND     CLEAR     22  17  81 NW10      30.09S WCI  11
OLATHE EXE     CLEAR     22  18  85 NW10      30.07S WCI  11
SALINA         CLEAR     21  15  78 NW13      30.17F WCI   9
TOPEKA BILLARD CLEAR     23  18  81 W8        30.13R
TOPEKA FORBES  CLEAR     23  17  78 NW10      30.12R WCI  12
$$




USA.gov is the U.S. government's official web portal to all federal, state and local government web resources and services.